Tracking 19219 objects as of 19-Jul-2018
HD Live streaming from Space Station
objects crossing your sky now

FENGYUN 1C DEB

Track FENGYUN 1C DEB now!
10-day predictions


NORAD ID: 31441
Int'l Code: 1999-025BUD
Perigee: 693.9 km
Apogee: 1,095.1 km
Inclination: 99.3 °
Period: 102.7 minutes
Semi major axis: 7265 km
RCS: 0.0191 m2 (small)
Launch date: May 10, 1999
Source: People's Republic of China (PRC)
Launch site: Taiyaun Space Center, China (TSC)

Note: This is SATELLITE DEBRIS
aabbcc
Your satellite tracking list
Your tracking list is empty




NASA's NSSDC Master Catalog

Two Line Element Set (TLE):
1 31441U 99025BUD 18198.98601641  .00000022  00000-0  32723-4 0  9995
2 31441  99.3195 257.4421 0276158  46.6182 315.7628 14.01858518578500
Source of the keplerian elements: AFSPC